Weather History for Erie, PA

Change the Weather History Date:

Saturday, October 25, 2014

  Actual Average Record
Temperature  
Mean Temperature 58 °F 50 °F  
Max Temperature 65 °F 58 °F 81 °F (2012)
Min Temperature 50 °F 43 °F 30 °F (2002)
Degree Days  
Heating Degree Days 7 15  
Month to date heating degree days 250 285  
Since 1 July heating degree days 367 409  
Cooling Degree Days 0 0  
Month to date cooling degree days 7 7  
Year to date cooling degree days 603 636  
Growing Degree Days 6 (Base 50)    
Moisture  
Dew Point 48 °F    
Average Humidity 64    
Maximum Humidity 80    
Minimum Humidity 47    
Precipitation  
Precipitation 0.00 in 0.11 in 1.18 in (1980)
Month to date precipitation 4.08 3.31  
Year to date precipitation 34.58 33.75  
Snow  
Snow 0.00 in 0.00 in - ()
Month to date snowfall 0.0 0.1  
Since 1 July snowfall 0.0 0.1  
Since 1 September snowfall 0.0 0.1  
Snow Depth 0.00 in    
Sea Level Pressure  
Sea Level Pressure 29.79 in    
Wind  
Wind Speed 11 mph (WSW)    
Max Wind Speed 25 mph    
Max Gust Speed 36 mph    
Visibility 9 miles    
Events      
T = Trace of Precipitation, MM = Missing Value Source: NWS Daily Summary

Daily Weather History Graph

Daily Weather History Graph

Search for Another Location

Airport:

Trip Planner

Search our weather history database for the weather conditions in past years. The results will help you decide how hot, cold, wet, or windy it might be!

Date:

Astronomy

Oct. 25, 2014 Rise Set
Actual Time 7:44 AM EDT 6:23 PM EDT
Civil Twilight 7:16 AM EDT 6:52 PM EDT
Nautical Twilight 6:43 AM EDT 7:25 PM EDT
Astronomical Twilight 6:11 AM EDT 7:57 PM EDT
Moon 9:23 AM EDT (10/25) 7:44 PM EDT (10/25)
Length of Visible Light 11h 36m
Length of Day
10h 38m
Waxing Crescent, 3% of the Moon is Illuminated
Oct 25
Waxing Crescent
Oct 30
First Quarter
Nov 6
Full
Nov 14
Last Quarter
Nov 22
New

Hourly Weather History & Observations

Time (EDT) Temp. Dew Point Humidity Pressure Visibility Wind Dir Wind Speed Gust Speed Precip Events Conditions
12:51 AM 53.1 °F 43.0 °F 69% 29.96 in 10.0 mi SSW 5.8 mph - N/A   Overcast
1:51 AM 51.1 °F 42.1 °F 71% 29.95 in 10.0 mi SSW 5.8 mph - N/A   Mostly Cloudy
2:51 AM 53.1 °F 43.0 °F 69% 29.94 in 10.0 mi SSW 6.9 mph - N/A   Overcast
3:51 AM 53.1 °F 43.0 °F 69% 29.93 in 10.0 mi SSW 6.9 mph - N/A   Overcast
4:51 AM 53.1 °F 44.1 °F 71% 29.90 in 10.0 mi SSW 5.8 mph - N/A   Overcast
5:51 AM 53.1 °F 43.0 °F 69% 29.90 in 10.0 mi South 6.9 mph - N/A   Overcast
6:51 AM 53.1 °F 43.0 °F 69% 29.89 in 10.0 mi SSW 8.1 mph - N/A   Overcast
7:51 AM 53.1 °F 43.0 °F 69% 29.88 in 10.0 mi SSW 9.2 mph - N/A   Mostly Cloudy
8:51 AM 55.9 °F 45.0 °F 67% 29.86 in 10.0 mi SSW 10.4 mph - N/A   Clear
9:51 AM 57.9 °F 46.9 °F 67% 29.84 in 10.0 mi SSW 13.8 mph - N/A   Mostly Cloudy
10:51 AM 59.0 °F 46.9 °F 64% 29.81 in 10.0 mi SSW 13.8 mph - N/A   Overcast
11:51 AM 62.1 °F 46.9 °F 58% 29.77 in 10.0 mi SSW 13.8 mph 24.2 mph N/A   Mostly Cloudy
12:51 PM 64.0 °F 48.0 °F 56% 29.75 in 10.0 mi SW 12.7 mph 23.0 mph N/A   Overcast
1:51 PM 60.1 °F 51.1 °F 72% 29.74 in 10.0 mi WSW 18.4 mph 31.1 mph N/A   Overcast
2:33 PM 60.8 °F 51.8 °F 72% 29.73 in 8.0 mi WSW 25.3 mph 35.7 mph N/A   Overcast
2:51 PM 60.1 °F 52.0 °F 75% 29.73 in 8.0 mi West 20.7 mph 31.1 mph N/A   Overcast
3:16 PM 59.0 °F 51.8 °F 77% 29.73 in 7.0 mi WSW 13.8 mph 24.2 mph N/A   Overcast
3:36 PM 59.0 °F 51.8 °F 77% 29.73 in 7.0 mi WSW 15.0 mph 26.5 mph N/A   Overcast
3:51 PM 59.0 °F 52.0 °F 78% 29.73 in 7.0 mi WSW 15.0 mph 23.0 mph N/A   Overcast
4:51 PM 59.0 °F 51.1 °F 75% 29.70 in 7.0 mi WSW 13.8 mph 21.9 mph N/A   Mostly Cloudy
5:08 PM 60.8 °F 51.8 °F 72% 29.70 in 8.0 mi West 16.1 mph 24.2 mph N/A   Partly Cloudy
5:44 PM 60.8 °F 51.8 °F 72% 29.70 in 7.0 mi WSW 17.3 mph 24.2 mph N/A   Mostly Cloudy
5:51 PM 59.0 °F 52.0 °F 78% 29.71 in 7.0 mi West 17.3 mph 27.6 mph N/A   Mostly Cloudy
6:17 PM 60.8 °F 51.8 °F 72% 29.71 in 8.0 mi West 15.0 mph 28.8 mph N/A   Scattered Clouds
6:51 PM 60.1 °F 52.0 °F 75% 29.71 in 8.0 mi WSW 10.4 mph 19.6 mph N/A   Clear
7:51 PM 57.9 °F 52.0 °F 81% 29.70 in 8.0 mi WSW 6.9 mph - N/A   Clear
8:51 PM 59.0 °F 51.1 °F 75% 29.69 in 10.0 mi WSW 11.5 mph 20.7 mph N/A   Clear
9:51 PM 60.1 °F 46.0 °F 60% 29.70 in 10.0 mi West 13.8 mph 25.3 mph N/A   Clear
10:51 PM 59.0 °F 39.0 °F 48% 29.73 in 10.0 mi NW 11.5 mph 26.5 mph N/A   Clear
11:51 PM 55.9 °F 43.0 °F 62% 29.75 in 10.0 mi NW 9.2 mph 16.1 mph N/A   Scattered Clouds